Twin Bridges, CA

12:21 PM PST on February 10, 2016 (GMT -0800)
Lake Tahoe

Weather History for KTVL - September, 2011

Change the Weather History Date:

Saturday, September 10, 2011

  Actual Average Record
Temperature  
Mean Temperature 60 °F 56 °F  
Max Temperature 77 °F 75 °F 87 °F (2015)
Min Temperature 43 °F 36 °F 28 °F (1986)
Degree Days  
Heating Degree Days 5 9  
Month to date heating degree days 48 85  
Since 1 July heating degree days 312 381  
Cooling Degree Days 0 0  
Month to date cooling degree days 0 0  
Year to date cooling degree days 19 30  
Growing Degree Days 9 (Base 50)    
Moisture  
Dew Point 40 °F    
Average Humidity 52    
Maximum Humidity 80    
Minimum Humidity 23    
Precipitation  
Precipitation 0.07 in - 0.39 in (1975)
Month to date precipitation 0.11  
Year to date precipitation 13.38  
Snow  
Snow 0.00 in - - ()
Month to date snowfall 0.0  
Snow Depth 0.00 in    
Sea Level Pressure  
Sea Level Pressure 30.03 in    
Wind  
Wind Speed 4 mph (South)    
Max Wind Speed 24 mph    
Max Gust Speed 30 mph    
Visibility 10 miles    
Events Rain , Thunderstorm    
T = Trace of Precipitation, MM = Missing Value Source: NWS Daily Summary

Daily Weather History Graph

Daily Weather History Graph

Search for Another Location

Airport or City:

Trip Planner

Search our weather history database for the weather conditions in past years. The results will help you decide how hot, cold, wet, or windy it might be!

Date:

Astronomy

Sep. 10, 2011 Rise Set
Actual Time 6:36 AM PDT 7:16 PM PDT
Civil Twilight 6:09 AM PDT 7:43 PM PDT
Nautical Twilight 5:38 AM PDT 8:15 PM PDT
Astronomical Twilight 5:05 AM PDT 8:47 PM PDT
Moon 6:13 PM PDT 5:02 AM PDT
Length of Visible Light 13h 33m
Length of Day
12h 39m
Waxing Gibbous, 98% of the Moon is Illuminated
Sep 10
Waxing Gibbous
Sep 12
Full
Sep 20
Last Quarter
Sep 27
New
Oct 3
First Quarter

Hourly Weather History & Observations

Time (PDT) Temp. Windchill Dew Point Humidity Pressure Visibility Wind Dir Wind Speed Gust Speed Precip Events Conditions
12:53 AM 51.1 °F - 36.0 °F 56% 29.97 in 10.0 mi Calm Calm - N/A   Clear
1:53 AM 48.0 °F - 36.0 °F 63% 29.97 in 10.0 mi Calm Calm - N/A   Clear
2:53 AM 46.0 °F 44.8 °F 35.1 °F 66% 29.96 in 10.0 mi SSW 3.5 mph - N/A   Clear
3:53 AM 45.0 °F 43.5 °F 34.0 °F 65% 29.96 in 10.0 mi South 3.5 mph - N/A   Clear
4:53 AM 44.1 °F - 34.0 °F 68% 29.97 in 10.0 mi Calm Calm - N/A   Clear
5:53 AM 44.1 °F - 34.0 °F 68% 29.97 in 10.0 mi Calm Calm - N/A   Clear
6:53 AM 43.0 °F - 34.0 °F 71% 30.00 in 9.0 mi Calm Calm - N/A   Clear
7:53 AM 46.9 °F - 36.0 °F 66% 30.00 in 10.0 mi South 3.5 mph - N/A   Clear
8:53 AM 59.0 °F - 39.9 °F 49% 29.99 in 10.0 mi Calm Calm - N/A   Clear
9:53 AM 70.0 °F - 35.1 °F 28% 29.97 in 10.0 mi NE 4.6 mph - N/A   Clear
10:53 AM 73.4 °F - 33.8 °F 23% 30.13 in 10.0 mi NNE 5.8 mph - N/A   Clear
11:53 AM 75.0 °F - 36.0 °F 24% 29.95 in 10.0 mi NNE 8.1 mph - N/A   Clear
12:53 PM 72.0 °F - 36.0 °F 27% 29.96 in 10.0 mi Calm Calm - N/A   Clear
1:25 PM 71.6 °F - 39.2 °F 31% 30.12 in 10.0 mi ENE 4.6 mph - N/A Thunderstorm Partly Cloudy
1:40 PM 71.6 °F - 39.2 °F 31% 30.12 in 10.0 mi ENE 3.5 mph - N/A   Partly Cloudy
1:53 PM 71.1 °F - 39.9 °F 32% 29.97 in 10.0 mi Calm Calm - N/A   Partly Cloudy
2:01 PM 71.6 °F - 41.0 °F 33% 30.12 in 10.0 mi South 5.8 mph - N/A Thunderstorm Clear
2:16 PM 69.8 °F - 42.8 °F 38% 30.12 in 10.0 mi South 3.5 mph - N/A   Clear
2:53 PM 71.1 °F - 37.9 °F 30% 29.96 in 10.0 mi South 6.9 mph - N/A   Clear
3:53 PM 73.0 °F - 39.0 °F 29% 29.95 in 10.0 mi Calm Calm - N/A   Clear
4:22 PM 73.4 °F - 39.2 °F 29% 30.10 in 10.0 mi NNE 9.2 mph - N/A Thunderstorm Mostly Cloudy
4:53 PM 62.1 °F - 45.0 °F 53% 30.01 in 8.0 mi South 18.4 mph 28.8 mph 0.00 in Rain , Thunderstorm Light Thunderstorms and Rain
5:01 PM 62.6 °F - 44.6 °F 52% 30.14 in 10.0 mi South 8.1 mph - 0.00 in Rain , Thunderstorm Light Thunderstorms and Rain
5:15 PM 60.8 °F - 44.6 °F 55% 30.15 in 2.5 mi South 9.2 mph - 0.05 in Rain , Thunderstorm Heavy Thunderstorms and Rain
5:23 PM 53.6 °F - 46.4 °F 77% 30.14 in 5.0 mi SW 4.6 mph 16.1 mph 0.06 in Rain , Thunderstorm Light Thunderstorms and Rain
5:53 PM 53.6 °F - 46.4 °F 77% 30.14 in 10.0 mi South 10.4 mph - N/A Rain Light Rain
6:37 PM 55.4 °F - 46.4 °F 72% 30.13 in 10.0 mi South 8.1 mph - N/A Thunderstorm Mostly Cloudy
6:53 PM 55.0 °F - 45.0 °F 69% 30.03 in 10.0 mi SW 5.8 mph - N/A   Partly Cloudy
7:53 PM 55.0 °F - 45.0 °F 69% 30.02 in 10.0 mi South 4.6 mph - N/A   Clear
8:53 PM 54.0 °F - 45.0 °F 72% 30.01 in 10.0 mi Variable 3.5 mph - N/A   Clear
9:53 PM 52.0 °F - 45.0 °F 77% 29.98 in 10.0 mi South 5.8 mph - N/A   Clear
10:53 PM 50.0 °F - 44.1 °F 80% 29.99 in 10.0 mi South 4.6 mph - N/A   Clear
11:53 PM 48.9 °F - 43.0 °F 80% 29.99 in 10.0 mi Calm Calm - N/A   Clear